Wind_Speed
23 25 26 29 29 32 33 35 36 36 28 44 47 41 38 33 34 37 33 36 35 23 23 17 12 16 18 18 16 15 12 10 11 8 5 2 1 4 6 8 10 12 14 15 16 17 17 18 18
22 24 26 28 28 27 21 33 37 32 37 34 44 44 35 31 32 33 39 38 29 27 14 9 12 14 15 14 13 10 7 10 10 7 4 3 4 7 10 13 16 17 18 19 20 21 21 21 22
22 24 27 28 28 21 19 29 31 30 28 25 39 40 40 38 39 38 39 43 35 24 10 8 11 13 12 11 11 5 8 12 10 7 6 5 8 10 13 15 18 21 22 23 24 25 25 26 26
17 21 25 24 19 24 26 28 29 27 24 20 26 22 27 30 41 42 45 30 27 11 5 6 10 11 9 10 8 8 9 10 8 7 6 9 11 13 15 18 20 23 24 25 25 25 25 25 25
16 17 23 23 25 26 23 25 29 27 25 25 30 34 23 28 30 23 26 28 10 4 5 7 9 9 10 10 9 9 8 7 7 7 9 12 14 15 17 20 22 23 23 24 24 24 25 26 25
15 18 19 21 21 19 23 20 27 28 24 24 21 22 29 35 21 15 9 9 6 4 1 9 9 9 11 10 10 8 7 7 7 10 13 15 16 16 19 21 22 23 23 24 24 24 25 24 25
17 17 21 27 24 20 23 23 23 22 26 24 27 30 16 14 7 4 10 7 9 4 9 9 11 11 12 11 10 8 7 9 11 14 16 17 17 20 21 23 27 26 25 23 23 23 24 25 29
18 16 23 26 20 21 25 24 26 23 21 23 25 18 14 6 4 4 3 4 7 9 10 11 13 14 15 11 9 8 10 13 16 17 18 18 20 22 23 23 25 27 27 26 25 26 28 30 30
17 16 13 20 18 16 21 27 28 24 26 21 8 8 4 4 4 2 5 8 9 11 12 13 15 16 12 9 9 12 14 17 18 19 18 20 23 21 20 25 28 30 29 29 29 31 33 35 35
14 14 13 17 20 22 20 22 22 22 23 24 5 9 10 6 6 8 9 12 14 13 13 15 14 11 9 10 13 16 17 18 19 21 21 22 25 23 23 25 27 30 31 34 35 35 35 36 37
13 15 19 19 23 15 12 13 9 8 10 8 8 14 12 5 8 10 12 12 12 13 13 11 9 9 11 14 15 17 17 20 22 24 23 27 25 22 22 26 29 32 34 35 36 36 38 37 35
18 18 17 17 14 14 16 16 10 8 12 13 12 11 10 8 8 8 9 10 11 10 8 8 9 11 12 13 15 17 21 23 25 28 27 28 28 25 24 26 30 32 34 38 39 40 40 39 37
12 18 16 14 18 17 17 14 8 9 11 12 9 6 7 6 4 6 8 10 10 8 7 8 9 11 13 16 18 21 25 27 31 33 31 30 29 26 27 27 33 36 39 41 42 41 40 40 39
18 11 10 17 19 18 18 11 10 11 9 7 4 4 4 5 6 8 7 8 8 9 10 11 11 13 16 18 20 24 30 31 35 35 29 27 25 31 33 34 38 40 41 41 41 41 40 38 37
11 5 5 11 15 11 11 8 6 5 6 3 0 1 3 4 5 7 9 10 11 13 13 12 14 16 18 23 26 29 35 38 34 24 23 29 41 39 40 41 44 43 43 42 39 36 36 36 36
11 9 7 10 6 6 7 10 7 5 5 3 1 3 4 5 7 9 11 11 11 11 13 15 17 19 22 27 32 36 41 34 38 40 36 37 36 40 43 45 43 40 37 36 34 33 34 37 40
3 8 7 7 10 11 10 12 9 6 4 3 4 5 7 9 12 13 14 14 14 16 19 19 20 22 25 31 32 37 35 38 45 40 38 38 42 44 45 42 38 37 35 34 35 38 41 43 46
7 12 10 12 13 11 12 11 9 8 7 4 5 7 10 12 12 15 17 18 20 18 20 23 25 25 29 28 25 35 45 43 43 39 39 40 42 43 41 39 37 36 37 38 42 46 48 51 53
13 12 10 12 10 8 9 9 8 8 7 8 7 8 10 12 14 14 17 19 18 19 21 23 25 29 34 35 36 40 44 46 47 48 49 50 49 46 41 38 38 41 43 47 50 52 55 56 59
7 16 14 13 7 4 7 10 10 9 8 8 11 12 13 13 14 14 15 15 17 20 24 27 30 33 36 38 40 42 45 50 50 48 53 54 52 49 48 49 49 51 52 53 54 56 59 63 68
11 16 16 12 8 7 7 7 9 9 10 12 11 13 14 13 16 17 18 19 20 23 28 30 32 34 36 36 40 45 49 52 51 54 54 52 51 51 53 54 55 55 56 57 59 62 66 69 74
11 11 15 13 11 10 9 8 14 14 13 13 14 15 17 18 19 19 19 19 22 25 28 30 30 32 35 37 43 48 48 50 57 57 52 50 49 51 54 56 58 59 61 63 66 70 74 79 83
14 11 13 13 14 15 19 20 21 15 16 17 18 19 20 19 18 18 18 20 25 28 29 32 34 34 36 41 45 47 53 52 50 51 53 53 53 55 57 60 62 64 65 69 73 77 82 86 89
15 11 11 15 15 17 19 18 14 12 17 18 17 17 17 16 15 17 20 23 22 22 22 22 27 31 35 39 43 46 49 51 52 53 53 55 57 59 62 63 64 66 69 74 79 84 89 92 94
16 16 14 15 17 16 15 15 10 12 13 14 14 14 13 13 14 15 15 14 16 19 22 25 28 31 34 38 42 46 49 52 54 54 57 58 60 62 63 64 66 70 75 79 85 90 93 95 96
18 15 16 17 17 17 13 8 11 11 9 7 6 4 4 5 8 11 14 17 20 23 26 30 32 34 37 40 43 46 49 52 54 55 57 59 60 63 65 67 71 76 81 85 91 94 96 97 97
16 17 17 18 13 11 8 7 5 5 6 6 5 4 5 8 11 14 17 20 23 26 30 33 36 39 41 44 45 47 49 52 55 57 60 61 63 65 68 71 76 81 86 91 93 94 95 96 98
19 17 15 12 11 8 8 8 9 8 8 7 8 10 12 14 16 18 21 24 27 30 34 36 38 41 43 46 47 49 51 53 57 60 61 62 65 68 71 76 81 86 91 92 92 92 95 97 88
19 15 13 13 11 10 8 9 10 9 10 12 14 16 18 19 21 23 25 28 30 33 36 39 41 43 46 48 50 52 55 57 60 61 62 63 67 71 75 81 86 89 91 90 91 94 95 84 69
19 16 16 15 14 13 12 12 14 14 15 16 18 20 23 25 27 29 31 33 35 37 39 42 44 47 49 51 53 55 57 58 60 61 63 66 70 75 81 85 87 88 88 90 93 93 78 64 51
Wind_Direction
237 241 237 236 237 241 244 248 248 248 255 234 248 241 246 253 243 240 242 246 245 233 246 254 302 310 310 308 304 299 281 226 196 180 181 187 288 345 335 338 334 334 330 328 323 319 317 315 312
236 236 238 240 239 244 256 248 247 249 248 268 251 245 233 237 239 237 245 247 234 239 238 281 312 307 304 299 296 283 238 201 192 196 209 253 316 313 324 327 326 323 318 316 315 310 308 306 304
238 235 238 242 244 242 246 248 256 248 249 267 254 248 246 229 234 241 241 247 247 214 244 308 304 295 294 291 288 244 198 192 198 210 239 281 298 309 316 316 314 313 313 313 309 309 306 304 301
249 240 240 237 241 240 246 250 254 253 247 265 216 228 227 245 226 231 234 217 205 210 235 296 288 284 282 283 251 208 196 201 211 231 262 283 296 301 307 308 309 308 309 311 311 311 315 313 309
245 244 240 243 248 246 251 251 252 255 250 232 240 238 245 234 252 243 212 224 189 213 217 274 277 275 267 256 212 199 203 217 237 259 275 287 291 297 301 306 304 306 306 310 311 311 313 313 314
243 251 245 248 244 246 246 252 244 246 247 229 227 224 255 252 259 257 211 182 177 146 257 247 255 243 249 220 202 203 216 241 260 270 275 279 287 294 297 299 301 300 305 308 307 306 306 307 312
239 243 244 236 243 249 247 252 244 245 242 243 251 242 274 268 265 263 8 14 51 189 232 235 234 237 226 203 208 218 237 260 269 271 277 283 283 287 290 297 304 301 304 308 309 311 309 307 307
241 255 256 238 235 253 235 245 239 247 235 252 261 248 250 253 318 27 73 147 185 198 211 223 230 226 210 210 224 244 262 271 273 276 276 279 288 289 295 308 307 303 304 304 304 307 312 312 308
244 263 243 236 237 230 225 234 244 241 249 249 190 190 163 83 110 104 137 171 182 196 212 222 223 208 208 223 242 255 265 270 272 275 279 282 283 288 298 308 306 306 305 304 300 303 308 310 311
244 225 218 220 227 231 242 221 233 243 258 235 171 132 121 123 141 125 144 173 191 204 206 202 200 206 225 241 252 262 267 271 278 281 279 281 287 290 300 307 307 303 300 298 298 297 302 307 308
220 211 236 220 238 252 181 105 66 102 95 108 149 135 124 144 124 126 133 155 171 182 192 202 212 230 245 259 267 271 279 283 285 282 282 282 282 287 300 300 300 299 300 299 297 295 298 302 301
212 236 261 225 237 245 102 104 103 115 101 101 103 116 138 152 149 164 171 180 194 201 211 229 246 256 265 275 280 287 289 289 286 284 278 278 281 282 287 293 302 300 299 299 297 296 297 299 296
209 237 243 248 253 243 109 105 141 138 114 108 120 156 159 160 173 194 207 214 215 217 226 240 250 263 272 281 287 288 289 286 283 280 275 279 280 289 280 295 297 293 294 297 297 297 296 294 291
198 222 159 156 118 117 111 138 172 141 124 115 141 173 174 171 187 207 215 222 214 214 225 236 252 272 281 281 283 284 284 280 276 269 268 276 296 312 316 309 302 299 297 296 295 293 290 288 286
182 148 136 87 96 105 122 157 191 133 120 113 301 175 189 203 229 225 229 231 231 239 250 265 287 293 290 287 286 284 283 273 264 272 308 314 324 319 312 307 304 299 297 294 291 289 288 287 285
143 168 149 155 147 164 173 178 196 195 146 140 214 257 255 242 238 238 239 248 265 282 283 287 286 284 287 288 290 282 290 279 283 274 299 313 310 304 308 307 302 297 292 289 289 288 287 287 287
158 167 151 161 194 199 189 191 199 233 178 195 201 231 239 244 246 250 252 258 262 265 271 276 278 281 285 279 281 278 249 286 322 308 320 306 307 306 305 302 298 295 294 292 290 290 292 291 292
210 181 187 196 195 193 181 189 205 231 256 220 245 228 244 242 244 252 258 260 266 271 277 285 284 278 279 283 282 296 308 314 314 311 310 308 306 306 304 302 299 295 292 291 290 294 298 296 295
182 193 212 201 192 192 183 188 212 238 252 272 266 260 252 254 256 257 256 258 269 276 280 285 280 276 281 297 299 294 305 314 309 306 308 310 311 311 308 303 299 300 301 300 300 301 301 299 299
189 214 208 211 224 213 208 210 212 216 229 249 252 243 244 255 266 275 282 280 282 279 277 280 283 284 292 296 297 302 312 313 306 304 311 315 313 309 310 308 306 305 302 300 300 298 298 299 301
223 213 216 225 233 222 231 237 222 224 236 233 237 243 252 263 271 278 281 283 282 287 285 288 291 287 289 300 303 302 304 308 309 311 310 308 306 305 304 302 299 298 298 300 299 300 301 301 302
236 235 233 236 233 249 252 248 253 240 243 243 248 254 261 267 275 281 284 289 284 290 293 293 293 297 297 294 297 300 300 301 301 301 302 304 303 302 299 297 297 299 300 301 302 302 304 306 306
232 245 252 262 265 262 259 265 265 254 253 258 257 258 263 268 274 279 286 289 288 293 294 292 295 297 294 298 299 294 298 303 305 307 306 304 302 299 299 300 301 302 302 303 304 306 307 308 307
233 254 256 248 252 251 253 259 251 261 254 250 252 253 257 265 272 279 283 288 294 300 299 305 305 304 304 304 303 303 304 304 304 305 303 299 298 299 300 301 302 302 305 307 307 308 308 307 307
238 260 259 254 256 267 269 265 273 254 254 259 259 263 269 274 278 283 289 298 302 305 311 314 313 311 312 312 310 308 304 303 302 300 299 298 299 301 302 302 303 306 308 308 307 308 309 309 309
244 245 253 263 269 268 257 250 245 259 264 264 264 263 268 274 282 293 300 305 310 313 314 312 310 309 309 309 308 308 306 305 303 303 301 301 302 302 303 305 307 307 307 308 310 311 310 310 312
236 243 254 261 250 237 231 230 227 239 256 265 266 267 291 299 303 304 302 302 305 307 306 304 304 305 305 304 304 304 305 305 305 305 305 305 305 305 306 307 306 307 309 310 311 311 312 313 311
240 245 246 238 225 220 202 241 257 262 263 274 280 287 291 293 295 299 302 302 303 302 302 303 303 304 303 303 303 304 306 307 308 307 306 306 306 307 307 307 308 310 311 311 312 313 313 312 311
245 237 227 219 216 207 220 259 261 263 272 281 287 287 287 287 290 295 299 299 299 301 303 304 303 303 305 307 308 307 308 308 307 308 307 307 307 307 307 309 310 311 312 313 314 314 313 312 309
238 225 217 216 221 231 250 259 270 275 277 284 290 294 292 291 292 293 295 297 298 300 301 303 304 306 308 308 307 307 307 307 307 307 308 307 308 309 309 310 312 313 314 316 315 313 312 309 305
Height
5827 5830 5832 5835 5841 5840 5839 5841 5841 5842 5840 5842 5845 5844 5845 5846 5847 5848 5848 5847 5849 5849 5850 5850 5849 5849 5848 5846 5844 5843 5843 5844 5846 5847 5847 5847 5847 5845 5844 5843 5843 5842 5842 5841 5840 5839 5839 5838 5837
5823 5825 5828 5830 5834 5835 5838 5835 5834 5834 5836 5838 5839 5838 5838 5840 5841 5842 5842 5841 5844 5845 5846 5846 5845 5845 5844 5843 5842 5841 5842 5844 5845 5845 5846 5847 5845 5845 5843 5842 5841 5840 5840 5839 5837 5836 5835 5833 5832
5819 5821 5823 5824 5826 5830 5834 5828 5825 5828 5830 5829 5829 5828 5830 5832 5834 5834 5836 5834 5839 5838 5841 5841 5842 5841 5841 5840 5840 5839 5841 5842 5843 5844 5845 5844 5843 5842 5840 5839 5838 5838 5837 5836 5835 5832 5831 5830 5828
5815 5816 5818 5820 5823 5822 5822 5821 5819 5822 5823 5825 5825 5826 5827 5827 5829 5829 5828 5830 5833 5833 5836 5838 5839 5838 5837 5836 5837 5838 5839 5840 5842 5842 5841 5842 5841 5840 5839 5839 5838 5836 5834 5833 5831 5828 5827 5826 5824
5811 5812 5814 5816 5817 5817 5817 5817 5816 5817 5818 5821 5824 5822 5821 5823 5820 5825 5824 5827 5827 5828 5831 5834 5836 5835 5835 5835 5835 5835 5837 5838 5839 5839 5840 5840 5840 5839 5838 5837 5836 5833 5831 5829 5827 5825 5824 5823 5821
5807 5809 5812 5814 5813 5813 5813 5814 5812 5813 5816 5818 5821 5820 5820 5819 5819 5821 5818 5823 5824 5826 5828 5831 5833 5832 5832 5832 5833 5834 5835 5837 5837 5838 5838 5837 5837 5836 5834 5833 5830 5828 5827 5825 5823 5821 5821 5819 5817
5803 5806 5806 5806 5809 5809 5810 5811 5810 5811 5813 5816 5814 5817 5817 5816 5817 5819 5813 5815 5819 5824 5828 5829 5830 5830 5830 5830 5831 5832 5833 5835 5835 5836 5836 5835 5833 5831 5830 5828 5826 5824 5822 5820 5819 5817 5816 5814 5813
5800 5802 5801 5803 5807 5806 5807 5808 5807 5807 5810 5812 5812 5811 5813 5814 5813 5814 5816 5818 5821 5824 5826 5826 5827 5827 5828 5829 5830 5831 5832 5833 5834 5833 5832 5830 5830 5828 5825 5823 5822 5819 5817 5816 5814 5812 5811 5809 5807
5797 5800 5801 5801 5803 5804 5805 5804 5804 5805 5808 5808 5807 5807 5809 5811 5814 5816 5815 5818 5821 5823 5823 5824 5825 5826 5826 5826 5827 5829 5829 5830 5829 5828 5827 5826 5825 5823 5821 5819 5817 5816 5813 5811 5809 5807 5804 5802 5799
5794 5797 5799 5799 5800 5799 5800 5802 5803 5804 5805 5803 5806 5807 5809 5812 5813 5813 5814 5817 5819 5819 5820 5822 5823 5824 5824 5825 5826 5826 5826 5826 5825 5824 5823 5821 5820 5818 5817 5815 5814 5812 5809 5807 5805 5802 5799 5796 5793
5792 5795 5794 5797 5794 5797 5798 5799 5802 5804 5802 5802 5806 5806 5809 5812 5812 5813 5814 5815 5817 5817 5820 5822 5822 5822 5822 5824 5824 5825 5824 5823 5821 5820 5819 5817 5815 5813 5811 5809 5808 5806 5804 5801 5798 5796 5793 5790 5787
5790 5792 5791 5793 5794 5795 5794 5800 5803 5805 5805 5804 5805 5806 5809 5811 5812 5813 5813 5814 5817 5819 5821 5820 5820 5821 5822 5823 5824 5822 5821 5820 5818 5815 5813 5812 5809 5807 5804 5803 5802 5799 5796 5794 5790 5788 5785 5783 5780
5789 5789 5790 5790 5792 5794 5797 5798 5804 5806 5805 5805 5807 5808 5810 5811 5811 5812 5814 5816 5818 5818 5818 5819 5819 5820 5820 5820 5819 5818 5816 5814 5812 5809 5808 5806 5804 5802 5800 5798 5796 5792 5788 5785 5782 5779 5776 5774 5772
5787 5789 5787 5789 5792 5794 5796 5801 5804 5804 5806 5806 5807 5809 5809 5811 5811 5813 5813 5815 5815 5817 5817 5817 5817 5817 5816 5814 5813 5812 5810 5808 5807 5804 5803 5801 5798 5795 5791 5790 5787 5784 5780 5776 5772 5769 5767 5764 5762
5787 5787 5788 5790 5790 5795 5798 5801 5803 5804 5804 5806 5808 5809 5811 5811 5812 5812 5812 5814 5815 5815 5815 5814 5813 5812 5811 5810 5808 5805 5804 5801 5798 5799 5798 5794 5788 5787 5787 5782 5779 5775 5771 5767 5764 5760 5757 5754 5752
5787 5789 5789 5792 5794 5797 5800 5801 5802 5803 5806 5807 5808 5808 5809 5809 5810 5810 5811 5811 5811 5811 5810 5811 5810 5810 5809 5807 5804 5800 5797 5796 5795 5793 5790 5787 5785 5782 5778 5773 5769 5765 5761 5758 5753 5750 5747 5745 5742
5790 5791 5792 5794 5795 5797 5799 5800 5802 5803 5806 5807 5807 5807 5807 5808 5808 5809 5809 5809 5808 5808 5809 5809 5808 5808 5807 5801 5798 5793 5792 5788 5787 5786 5783 5782 5777 5772 5768 5764 5759 5755 5751 5747 5743 5741 5738 5734 5732
5791 5792 5793 5794 5796 5797 5799 5800 5802 5803 5804 5806 5806 5807 5807 5807 5808 5807 5807 5807 5807 5807 5806 5805 5804 5803 5801 5792 5789 5790 5785 5783 5780 5778 5776 5773 5769 5763 5758 5753 5749 5745 5741 5736 5734 5731 5725 5722 5720
5791 5792 5793 5794 5795 5797 5799 5800 5801 5802 5804 5804 5805 5805 5806 5806 5806 5807 5807 5806 5805 5804 5802 5801 5799 5796 5794 5784 5785 5786 5783 5776 5773 5770 5765 5759 5755 5751 5746 5742 5738 5733 5729 5726 5722 5716 5711 5707 5702
5791 5792 5793 5795 5796 5798 5798 5799 5801 5802 5803 5804 5804 5804 5804 5804 5803 5803 5803 5802 5801 5799 5797 5795 5792 5790 5787 5784 5780 5777 5772 5768 5764 5758 5754 5747 5743 5738 5733 5728 5724 5720 5717 5713 5707 5703 5698 5691 5684
5789 5791 5792 5794 5796 5797 5798 5799 5799 5800 5801 5802 5801 5801 5801 5800 5800 5799 5798 5797 5795 5793 5791 5789 5786 5784 5781 5778 5772 5768 5761 5756 5751 5747 5743 5738 5733 5728 5723 5719 5715 5712 5707 5699 5693 5687 5680 5673 5666
5788 5790 5791 5793 5795 5797 5797 5801 5798 5798 5798 5798 5797 5797 5796 5796 5795 5794 5792 5791 5790 5787 5785 5783 5780 5777 5774 5769 5765 5761 5756 5752 5747 5741 5735 5729 5724 5719 5715 5710 5704 5697 5690 5683 5676 5669 5661 5653 5644
5787 5788 5790 5791 5792 5793 5793 5795 5795 5794 5794 5792 5792 5791 5791 5790 5789 5788 5787 5785 5783 5781 5779 5776 5772 5769 5766 5762 5757 5754 5750 5743 5736 5730 5723 5718 5713 5709 5703 5696 5689 5682 5675 5668 5659 5651 5641 5631 5621
5785 5787 5787 5788 5789 5790 5791 5792 5792 5789 5787 5786 5785 5786 5785 5785 5784 5783 5781 5780 5778 5776 5773 5770 5766 5762 5759 5755 5750 5745 5739 5732 5726 5721 5714 5709 5703 5697 5690 5684 5676 5668 5660 5651 5641 5631 5620 5610 5599
5783 5785 5785 5786 5786 5787 5786 5786 5785 5784 5782 5782 5781 5781 5781 5780 5779 5778 5777 5775 5773 5770 5766 5763 5759 5755 5751 5746 5741 5735 5730 5724 5717 5711 5705 5698 5691 5684 5677 5670 5662 5653 5644 5634 5623 5611 5600 5589 5577
5780 5782 5782 5782 5783 5783 5782 5783 5782 5781 5780 5779 5778 5778 5777 5776 5775 5774 5772 5769 5766 5763 5760 5756 5752 5747 5743 5738 5732 5727 5721 5714 5707 5701 5694 5687 5680 5672 5664 5655 5646 5637 5627 5616 5603 5590 5578 5566 5552
5778 5778 5780 5780 5780 5780 5781 5780 5779 5779 5778 5777 5776 5776 5774 5773 5771 5769 5766 5764 5761 5757 5753 5749 5744 5740 5735 5729 5724 5718 5711 5704 5697 5689 5682 5674 5666 5658 5649 5640 5631 5621 5609 5597 5585 5571 5557 5543 5530
5774 5775 5777 5777 5778 5778 5779 5778 5778 5777 5776 5775 5774 5772 5771 5768 5766 5764 5761 5758 5754 5750 5746 5741 5736 5731 5726 5720 5714 5707 5700 5692 5685 5677 5669 5661 5653 5644 5635 5626 5615 5603 5590 5578 5565 5551 5537 5522 5507
5770 5771 5772 5773 5775 5775 5776 5776 5774 5774 5773 5771 5770 5768 5766 5763 5761 5758 5754 5751 5747 5742 5737 5732 5727 5722 5716 5709 5701 5694 5687 5680 5673 5664 5656 5648 5640 5630 5620 5609 5597 5585 5572 5559 5545 5529 5514 5502 5490
5765 5767 5769 5770 5772 5772 5773 5774 5770 5769 5768 5767 5765 5763 5760 5757 5755 5751 5747 5743 5739 5734 5729 5723 5717 5710 5704 5697 5690 5683 5675 5668 5660 5652 5643 5634 5625 5614 5603 5592 5581 5567 5553 5539 5524 5509 5495 5485 5476